Regional Weather Roundup
Issued by NWS Goodland, KS

Home | Current Version | Previous Version | Graphics & Text | Print | Product List | Glossary On
Versions: 1 2 3 4 5 6 7 8 9 10 11 12 13 14 15 16 17 18 19 20 21 22 23 24 25 26 27 28 29 30 31 32 33 34 35 36 37 38 39 40 41 42 43 44 45 46 47 48 49 50
000
ASUS43 KGLD 020459
RWRGLD

GOODLAND FORECAST AREA HOURLY WEATHER ROUNDUP
NATIONAL WEATHER SERVICE GOODLAND KS
1100 PM MDT MON SEP 01 2014

...OFFICIAL OBSERVATIONS...

CITY           SKY/WX    TMP DP  RH WIND       PRES   REMARKS
GOODLAND KS    CLEAR     63  55  75 S13       30.01S
HILL CITY KS   PTCLDY    63  58  83 CALM      29.96R
IMPERIAL NEB   PTCLDY    60  54  80 NE9       30.05R
MCCOOK NEB     PTCLDY    63  54  72 NE8       30.01R
AKRON CO       CLEAR     57  47  69 MISG      30.10R
BURLINGTON CO  CLEAR     60  50  69 SE6       30.05R
LIMON CO       CLEAR     52  46  80 CALM      30.11S
$$

...UNOFFICIAL OBSERVATIONS...

CITY           SKY/WX    TMP DP  RH WIND       PRES   REMARKS
COLBY KS       CLEAR     64  57  77 S7        29.99S
NORTON KS      CLEAR     57  52  82 N13       29.97R
SHARON SPRINGS   N/A     64  57  78 S5          N/A
WAKEENEY KS      N/A     68  55  64 MISG        N/A
KIT CARSON CO    N/A     66  52  60 CALM        N/A
YUMA CO          N/A     61  49  63 NE10        N/A
$$



USA.gov is the U.S. government's official web portal to all federal, state and local government web resources and services.